IW5AKT-5 Musigliano PI IT current weather conditions

sailwx.info

Wind from 142

Air temperature 19.4° C
Dewpoint 15.9° C

Last reported at 2019-Sep-16 21:03 UTC.
Time now 2019-Sep-16 22:11 UTC

Location: N 43°43' E 010°27'.
View on Google Maps.

See reports from other nearby stations

  
Tides and Currents Weather Stations Pressure Air Temp Water Temp Dewpoint Dewpoint Depression Visibility Wind Speed Wind Dir Waves Ship Positions
date/time (UTC)wind fromknots sea level pressurealtimeterstation pressurevisibilityair tempwater tempwave heightnotes
2019-Sep-16 21:03 142 19.4
2019-Sep-16 20:59 142 20.0
2019-Sep-16 20:53 142 0 gusting 1 20.0
2019-Sep-16 20:49 045 0 gusting 0 20.0
2019-Sep-16 20:43 045 20.6
2019-Sep-16 20:39 225 20.6
2019-Sep-16 20:33 225 0 gusting 1 20.6
2019-Sep-16 20:29 225 1 gusting 1 20.6
2019-Sep-16 20:23 225 20.6
2019-Sep-16 20:19 142 20.6
2019-Sep-16 20:13 225 20.6
2019-Sep-16 20:09 225 20.6
2019-Sep-16 20:03 142 21.1
2019-Sep-16 19:59 142 21.1
2019-Sep-16 19:53 135 21.1
2019-Sep-16 19:49 135 21.1
2019-Sep-16 19:43 135 21.1
2019-Sep-16 19:39 142 21.7
2019-Sep-16 19:33 142 0 gusting 1 21.7
2019-Sep-16 19:29 142 0 gusting 1 21.7
2019-Sep-16 19:23 045 21.7
2019-Sep-16 19:19 045 21.7
2019-Sep-16 19:13 045 0 gusting 0 22.2
2019-Sep-16 19:09 142 22.2
2019-Sep-16 19:03 142 22.2
2019-Sep-16 18:59 142 22.2
2019-Sep-16 18:53 142 22.2
2019-Sep-16 18:49 022 22.8
2019-Sep-16 18:43 142 0 gusting 0 22.8
2019-Sep-16 18:39 142 0 gusting 0 22.8
2019-Sep-16 18:33 045 22.8
2019-Sep-16 18:29 142 0 gusting 1 22.8
2019-Sep-16 18:23 045 0 gusting 1 23.3
2019-Sep-16 18:19 045 0 gusting 1 23.3
2019-Sep-16 18:13 142 23.3
2019-Sep-16 18:09 142 0 gusting 1 23.3
2019-Sep-16 18:03 23.9
2019-Sep-16 17:59 045 0 gusting 1 23.9
2019-Sep-16 17:53 045 0 gusting 1 23.9
2019-Sep-16 17:49 045 0 gusting 1 23.9
2019-Sep-16 17:43 142 1 gusting 2 24.4
2019-Sep-16 17:39 142 1 gusting 2 24.4
2019-Sep-16 17:33 142 2 gusting 3 24.4
2019-Sep-16 17:29 142 1 gusting 1 25.0
2019-Sep-16 17:23 142 1 gusting 2 25.0
2019-Sep-16 17:19 142 1 gusting 2 25.0
2019-Sep-16 17:13 142 1 gusting 2 25.6
2019-Sep-16 17:09 142 1 gusting 2 25.6
2019-Sep-16 17:03 270 2 gusting 3 26.1
2019-Sep-16 16:59 142 2 gusting 3 26.1
2019-Sep-16 16:53 26.7
2019-Sep-16 16:49 26.7
2019-Sep-16 16:43 142 1 gusting 2 26.7
2019-Sep-16 16:39 142 1 gusting 2 26.7
2019-Sep-16 16:33 315 2 gusting 3 27.2
2019-Sep-16 16:29 27.8
2019-Sep-16 16:23 27.8
2019-Sep-16 16:19 27.8
2019-Sep-16 16:13 270 3 gusting 4 27.8
2019-Sep-16 16:09 142 3 gusting 4 27.8
2019-Sep-16 16:03 270 3 gusting 5 27.8
2019-Sep-16 15:59 142 3 gusting 4 27.8
2019-Sep-16 15:53 270 3 gusting 3 28.3
2019-Sep-16 15:49 28.3
2019-Sep-16 15:43 142 1 gusting 2 28.3
2019-Sep-16 15:39 142 3 gusting 5 28.3
2019-Sep-16 15:33 270 3 gusting 4 28.3
2019-Sep-16 15:29 180 1 gusting 3 28.3
2019-Sep-16 15:23 225 2 gusting 3 28.3
2019-Sep-16 15:19 225 3 gusting 4 28.3
2019-Sep-16 15:13 142 2 gusting 3 28.3
2019-Sep-16 15:09 142 2 gusting 3 28.3
2019-Sep-16 15:03 142 2 gusting 3 28.3
2019-Sep-16 14:59 142 2 gusting 4 28.3
2019-Sep-16 14:53 130 3 gusting 3 28.3
2019-Sep-16 14:49 142 3 gusting 5 28.9
2019-Sep-16 14:43 28.9
2019-Sep-16 14:39 28.9
2019-Sep-16 14:33 142 1 gusting 3 28.9
2019-Sep-16 14:29 28.9
2019-Sep-16 14:23 142 3 gusting 5 28.9
2019-Sep-16 14:19 142 5 gusting 6 28.9
2019-Sep-16 14:13 338 3 gusting 5 28.9
2019-Sep-16 14:09 270 3 gusting 5 28.9
2019-Sep-16 14:03 225 1 gusting 1 28.9
2019-Sep-16 13:59 142 3 gusting 4 28.9
2019-Sep-16 13:53 142 4 gusting 6 28.9
2019-Sep-16 13:49 270 3 gusting 4 28.9
2019-Sep-16 13:43 270 3 gusting 6 28.9
2019-Sep-16 13:39 28.9
2019-Sep-16 13:33 28.9
2019-Sep-16 13:29 142 4 gusting 6 28.9
2019-Sep-16 13:23 28.9
2019-Sep-16 13:19 142 6 gusting 7 28.9
2019-Sep-16 13:13 270 2 gusting 3 28.9
2019-Sep-16 13:09 142 5 gusting 6 28.9
2019-Sep-16 13:03 28.9
2019-Sep-16 12:59 142 5 gusting 6 28.9
2019-Sep-16 12:53 142 3 gusting 5 28.9
2019-Sep-16 12:49 270 3 gusting 6 29.4
2019-Sep-16 12:43 142 3 gusting 5 28.9
2019-Sep-16 12:39 142 3 gusting 4 29.4
2019-Sep-16 12:33 225 4 gusting 6 29.4
2019-Sep-16 12:29 270 5 gusting 6 29.4
2019-Sep-16 12:23 270 3 gusting 6 29.4
2019-Sep-16 12:19 142 6 gusting 9 28.9
2019-Sep-16 12:13 142 5 gusting 7 29.4
2019-Sep-16 12:09 270 4 gusting 6 29.4
2019-Sep-16 12:03 142 3 gusting 5 28.9
2019-Sep-16 11:59 142 3 gusting 6 28.9
2019-Sep-16 11:53 225 4 gusting 6 29.4
2019-Sep-16 11:49 225 1 gusting 3 29.4
2019-Sep-16 11:43 225 2 gusting 3 29.4
2019-Sep-16 11:39 142 3 gusting 3 29.4
2019-Sep-16 11:33 142 2 gusting 3 29.4
2019-Sep-16 11:29 142 2 gusting 4 28.9
2019-Sep-16 11:23 270 3 gusting 6 28.9
2019-Sep-16 11:19 270 3 gusting 6 28.9
2019-Sep-16 11:13 270 3 gusting 4 28.9
2019-Sep-16 11:09 142 2 gusting 3 28.9
2019-Sep-16 11:03 225 3 gusting 5 28.3
2019-Sep-16 10:59 270 3 gusting 4 28.9
2019-Sep-16 10:53 142 4 gusting 6 28.9
2019-Sep-16 10:49 225 1 gusting 1 28.3
2019-Sep-16 10:43 270 3 gusting 4 28.3
2019-Sep-16 10:39 142 1 gusting 1 28.3
2019-Sep-16 10:33 142 2 gusting 3 28.3
2019-Sep-16 10:29 135 1 gusting 3 28.3
2019-Sep-16 10:23 225 1 gusting 2 27.8
2019-Sep-16 10:19 292 1 gusting 2 27.8
2019-Sep-16 10:13 142 1 gusting 2 27.8
2019-Sep-16 10:09 142 2 gusting 3 27.2
2019-Sep-16 10:03 142 2 gusting 3 27.2
2019-Sep-16 09:59 27.2
2019-Sep-16 09:53 142 2 gusting 3 27.2
2019-Sep-16 09:49 225 1 gusting 1 27.2
2019-Sep-16 09:43 142 1 gusting 2 27.2
2019-Sep-16 09:39 180 1 gusting 2 27.2
2019-Sep-16 09:33 26.7
2019-Sep-16 09:29 135 26.1
2019-Sep-16 09:23 142 1 gusting 2 26.1
2019-Sep-16 09:19 270 3 gusting 4 26.1
2019-Sep-16 09:13 225 1 gusting 2 25.6
2019-Sep-16 09:09 270 1 gusting 1 25.6
2019-Sep-16 09:03 25.6
2019-Sep-16 08:59 142 0 gusting 1 25.0
2019-Sep-16 08:53 270 1 gusting 2 25.0
2019-Sep-16 08:49 270 1 gusting 2 25.0
2019-Sep-16 08:43 25.0
2019-Sep-16 08:39 24.4
2019-Sep-16 08:33 142 1 gusting 1 24.4
2019-Sep-16 08:29 180 24.4
2019-Sep-16 08:23 270 1 gusting 1 24.4
2019-Sep-16 08:19 225 0 gusting 1 23.9
2019-Sep-16 08:13 142 1 gusting 1 23.3
2019-Sep-16 08:09 135 23.3
2019-Sep-16 08:03 225 22.8
2019-Sep-16 07:59 270 22.8
2019-Sep-16 07:53 135 0 gusting 1 22.2
2019-Sep-16 07:49 135 1 gusting 1 21.7
2019-Sep-16 07:43 142 21.7
2019-Sep-16 07:39 135 21.7
2019-Sep-16 07:33 142 21.1
2019-Sep-16 07:29 045 1 gusting 1 21.1
2019-Sep-16 07:23 142 1 gusting 2 21.1
2019-Sep-16 07:19 142 0 gusting 1 20.6
2019-Sep-16 07:13 225 0 gusting 1 20.0
2019-Sep-16 07:09 142 0 gusting 1 20.0
2019-Sep-16 07:03 180 20.0
2019-Sep-16 06:59 135 0 gusting 1 20.0
2019-Sep-16 06:53 180 19.4
2019-Sep-16 06:49 180 0 gusting 1 18.9
2019-Sep-16 06:43 180 18.3
2019-Sep-16 06:39 225 0 gusting 1 18.3
2019-Sep-16 06:33 180 0 gusting 1 17.8
2019-Sep-16 06:29 180 0 gusting 1 17.8
2019-Sep-16 06:23 180 1 gusting 2 17.8
2019-Sep-16 06:19 180 17.2
2019-Sep-16 06:13 180 0 gusting 1 17.2
2019-Sep-16 06:09 180 16.7
2019-Sep-16 06:03 180 16.7
2019-Sep-16 05:59 180 16.7
2019-Sep-16 05:53 142 16.1
2019-Sep-16 05:49 142 16.1
2019-Sep-16 05:43 142 0 gusting 1 15.6
2019-Sep-16 05:39 045 0 gusting 1 15.6
2019-Sep-16 05:33 142 15.6
2019-Sep-16 05:29 045 15.6
2019-Sep-16 05:23 045 15.6
2019-Sep-16 05:19 142 15.6
2019-Sep-16 05:13 225 15.6
2019-Sep-16 05:09 225 15.6
2019-Sep-16 05:03 045 15.6
2019-Sep-16 04:59 045 15.6
2019-Sep-16 04:53 180 15.6
2019-Sep-16 04:49 180 15.6
2019-Sep-16 04:43 142 16.1
2019-Sep-16 04:39 142 0 gusting 1 16.1
2019-Sep-16 04:33 180 16.1
2019-Sep-16 04:29 180 0 gusting 1 16.1
2019-Sep-16 04:23 135 16.1
2019-Sep-16 04:19 142 0 gusting 1 16.1
2019-Sep-16 04:13 135 16.1
2019-Sep-16 04:09 142 16.1
2019-Sep-16 04:03 135 16.1
2019-Sep-16 03:59 180 1 gusting 1 16.1
2019-Sep-16 03:53 142 1 gusting 1 16.7
2019-Sep-16 03:49 180 1 gusting 1 16.7
2019-Sep-16 03:43 180 1 gusting 1 16.7
2019-Sep-16 03:39 135 1 gusting 1 16.7
2019-Sep-16 03:33 142 0 gusting 1 16.7
2019-Sep-16 03:29 180 1 gusting 1 16.7
2019-Sep-16 03:23 180 1 gusting 1 16.7
2019-Sep-16 03:19 142 0 gusting 1 16.7
2019-Sep-16 03:13 180 1 gusting 1 16.7
2019-Sep-16 03:09 180 1 gusting 1 16.7
2019-Sep-16 03:03 142 1 gusting 1 16.7
2019-Sep-16 02:59 225 1 gusting 1 16.7
2019-Sep-16 02:53 180 0 gusting 1 16.7
2019-Sep-16 02:49 180 16.7
2019-Sep-16 02:43 180 16.7
2019-Sep-16 02:39 135 16.7
2019-Sep-16 02:33 142 16.7
2019-Sep-16 02:29 142 16.7
2019-Sep-16 02:23 142 16.7
2019-Sep-16 02:19 142 16.7
2019-Sep-16 02:13 142 16.7
2019-Sep-16 02:09 142 0 gusting 1 17.2
2019-Sep-16 02:03 045 17.2
2019-Sep-16 01:59 045 0 gusting 0 17.2
2019-Sep-16 01:53 142 17.2
2019-Sep-16 01:49 142 17.2
2019-Sep-16 01:43 142 17.2
2019-Sep-16 01:39 142 17.2
2019-Sep-16 01:33 142 17.8
2019-Sep-16 01:29 180 17.8
2019-Sep-16 01:23 225 17.8
2019-Sep-16 01:19 180 17.8
2019-Sep-16 01:13 225 17.8
2019-Sep-16 01:09 225 17.8
2019-Sep-16 01:03 225 0 gusting 1 17.8
2019-Sep-16 00:59 180 17.8
2019-Sep-16 00:53 180 17.8
2019-Sep-16 00:49 180 17.8
2019-Sep-16 00:43 180 17.8
2019-Sep-16 00:39 180 17.8
2019-Sep-16 00:33 180 17.8
2019-Sep-16 00:29 180 18.3
2019-Sep-16 00:23 180 18.3
2019-Sep-16 00:19 180 18.3
2019-Sep-16 00:13 180 18.3
2019-Sep-16 00:09 135 0 gusting 1 18.3
2019-Sep-16 00:03 135 0 gusting 1 18.3
2019-Sep-15 23:59 142 18.3
2019-Sep-15 23:53 142 18.3
2019-Sep-15 23:49 142 18.3
2019-Sep-15 23:43 142 18.9
2019-Sep-15 23:39 142 18.9
2019-Sep-15 23:33 180 18.9
2019-Sep-15 23:29 180 18.9
2019-Sep-15 23:23 135 1 gusting 1 18.9
2019-Sep-15 23:19 135 1 gusting 1 18.9
2019-Sep-15 23:13 135 0 gusting 1 18.9
2019-Sep-15 23:09 180 0 gusting 1 18.9
2019-Sep-15 23:03 135 0 gusting 1 18.9
2019-Sep-15 22:59 180 1 gusting 1 18.9
2019-Sep-15 22:53 180 1 gusting 1 18.9
2019-Sep-15 22:49 135 0 gusting 1 18.9
2019-Sep-15 22:43 135 0 gusting 1 18.9
2019-Sep-15 22:39 135 0 gusting 1 18.9
2019-Sep-15 22:33 135 18.9
2019-Sep-15 22:29 142 0 gusting 1 18.9
2019-Sep-15 22:23 135 0 gusting 1 18.9
2019-Sep-15 22:19 135 0 gusting 1 19.4
2019-Sep-15 22:13 142 0 gusting 1 19.4
2019-Sep-15 22:09 142 19.4
2019-Sep-15 22:03 142 19.4
2019-Sep-15 21:59 142 19.4
2019-Sep-15 21:53 142 19.4
2019-Sep-15 21:49 142 19.4
2019-Sep-15 21:43 142 19.4
2019-Sep-15 21:39 142 19.4
2019-Sep-15 21:33 142 19.4
2019-Sep-15 21:29 142 19.4
2019-Sep-15 21:23 142 20.0
2019-Sep-15 21:19 142 20.0
2019-Sep-15 21:13 142 20.0
2019-Sep-15 21:09 142 20.0
2019-Sep-15 21:03 142 20.0
2019-Sep-15 20:59 142 20.0
2019-Sep-15 20:53 142 20.0
2019-Sep-15 20:49 142 20.0
2019-Sep-15 20:43 142 20.0
2019-Sep-15 20:39 142 20.6
2019-Sep-15 20:33 142 20.6
2019-Sep-15 20:29 135 0 gusting 1 20.6
2019-Sep-15 20:23 142 21.1
2019-Sep-15 20:19 142 1 gusting 2 21.1
2019-Sep-15 20:13 045 21.1
2019-Sep-15 20:09 045 21.7
2019-Sep-15 20:03 045 21.7
2019-Sep-15 19:59 045 21.7
2019-Sep-15 19:53 045 21.7
2019-Sep-15 19:49 045 21.7
2019-Sep-15 19:43 045 21.7
2019-Sep-15 19:39 045 21.7
2019-Sep-15 19:33 045 22.2
2019-Sep-15 19:29 135 22.2
2019-Sep-15 19:23 130 22.2
2019-Sep-15 19:19 338 22.2
2019-Sep-15 19:13 068 22.8
2019-Sep-15 19:09 022 0 gusting 1 22.8
2019-Sep-15 19:03 225 0 gusting 1 22.8
2019-Sep-15 18:59 22.8
2019-Sep-15 18:53 045 23.3
2019-Sep-15 18:49 045 23.3
2019-Sep-15 18:43 142 23.3
2019-Sep-15 18:39 142 0 gusting 1 23.3
2019-Sep-15 18:33 23.3
2019-Sep-15 18:29 142 23.3
2019-Sep-15 18:23 270 0 gusting 1 23.3
2019-Sep-15 18:19 270 23.3
2019-Sep-15 18:13 23.3
2019-Sep-15 18:09 23.3
2019-Sep-15 18:03 23.9
2019-Sep-15 17:59 23.9
2019-Sep-15 17:53 142 1 gusting 1 23.9
2019-Sep-15 17:49 142 1 gusting 2 23.9
2019-Sep-15 17:43 142 1 gusting 1 24.4
2019-Sep-15 17:39 142 1 gusting 2 24.4
2019-Sep-15 17:33 142 1 gusting 2 24.4
2019-Sep-15 17:29 270 1 gusting 2 24.4
2019-Sep-15 17:23 142 1 gusting 2 25.0
2019-Sep-15 17:19 142 1 gusting 2 25.0
2019-Sep-15 17:13 142 2 gusting 3 25.0
2019-Sep-15 17:09 270 4 gusting 6 25.0
2019-Sep-15 17:03 270 2 gusting 4 25.6
2019-Sep-15 16:59 142 3 gusting 5 25.6
2019-Sep-15 16:53 25.6
2019-Sep-15 16:49 142 3 gusting 4 25.6
2019-Sep-15 16:43 142 3 gusting 4 25.6
2019-Sep-15 16:39 142 4 gusting 6 26.1
2019-Sep-15 16:33 26.1
2019-Sep-15 16:29 142 4 gusting 6 26.1
2019-Sep-15 16:23 142 3 gusting 4 26.7
2019-Sep-15 16:19 142 3 gusting 4 26.7
2019-Sep-15 16:13 270 3 gusting 3 26.7
2019-Sep-15 16:09 270 1 gusting 3 26.7
2019-Sep-15 16:03 045 3 gusting 4 26.7
2019-Sep-15 15:59 26.7
2019-Sep-15 15:53 26.7
2019-Sep-15 15:49 26.7
2019-Sep-15 15:43 270 3 gusting 4 27.2
2019-Sep-15 15:39 338 3 gusting 4 27.2
2019-Sep-15 15:33 27.2
2019-Sep-15 15:29 142 5 gusting 6 27.2
2019-Sep-15 15:23 225 3 gusting 5 27.2
2019-Sep-15 15:19 27.2
2019-Sep-15 15:13 142 4 gusting 6 27.8
2019-Sep-15 15:09 27.8
2019-Sep-15 15:03 270 2 gusting 4 27.8
2019-Sep-15 14:59 27.8
2019-Sep-15 14:53 142 3 gusting 5 27.8
2019-Sep-15 14:49 27.8
2019-Sep-15 14:43 270 4 gusting 5 27.8
2019-Sep-15 14:39 27.8
2019-Sep-15 14:33 142 3 gusting 4 28.3
2019-Sep-15 14:29 142 3 gusting 4 28.3
2019-Sep-15 14:23 142 4 gusting 6 28.3
2019-Sep-15 14:19 270 3 gusting 5 28.3
2019-Sep-15 14:13 142 3 gusting 6 28.3
2019-Sep-15 14:09 142 3 gusting 5 28.3
2019-Sep-15 14:03 142 3 gusting 4 28.3
2019-Sep-15 13:59 28.3
2019-Sep-15 13:53 142 3 gusting 3 28.3
2019-Sep-15 13:49 315 5 gusting 6 28.3
2019-Sep-15 13:43 142 3 gusting 5 28.3
2019-Sep-15 13:39 142 3 gusting 5 28.3
2019-Sep-15 13:33 142 5 gusting 6 28.9
2019-Sep-15 13:29 28.9
2019-Sep-15 13:23 142 0 gusting 1 28.9
2019-Sep-15 13:19 142 1 gusting 1 28.9
2019-Sep-15 13:13 142 2 gusting 3 28.9
2019-Sep-15 13:09 142 1 gusting 1 28.9
2019-Sep-15 13:03 142 1 gusting 2 29.4
2019-Sep-15 12:59 142 1 gusting 1 29.4
2019-Sep-15 12:53 142 0 gusting 1 29.4
2019-Sep-15 12:49 142 0 gusting 1 29.4
2019-Sep-15 12:43 29.4
2019-Sep-15 12:39 225 30.0
2019-Sep-15 12:33 142 30.0
2019-Sep-15 12:29 142 30.0
2019-Sep-15 12:23 180 2 gusting 3 30.0
2019-Sep-15 12:19 180 1 gusting 2 30.0
2019-Sep-15 12:13 180 1 gusting 3 29.4
2019-Sep-15 12:09 180 1 gusting 2 29.4
2019-Sep-15 12:03 225 1 gusting 2 29.4
2019-Sep-15 11:59 225 1 gusting 2 29.4
2019-Sep-15 11:53 135 3 gusting 4 29.4
2019-Sep-15 11:49 135 2 gusting 5 29.4
2019-Sep-15 11:43 135 2 gusting 3 29.4
2019-Sep-15 11:39 135 1 gusting 2 29.4
2019-Sep-15 11:33 180 3 gusting 3 29.4
2019-Sep-15 11:29 180 2 gusting 3 29.4
2019-Sep-15 11:23 180 5 gusting 6 29.4
2019-Sep-15 11:19 180 3 gusting 6 29.4
2019-Sep-15 11:13 180 3 gusting 6 29.4
2019-Sep-15 11:09 270 1 gusting 2 29.4
2019-Sep-15 11:03 338 3 gusting 3 29.4
2019-Sep-15 10:59 225 4 gusting 6 29.4
2019-Sep-15 10:53 135 1 gusting 2 29.4
2019-Sep-15 10:49 180 4 gusting 6 29.4
2019-Sep-15 10:43 142 2 gusting 3 28.9
2019-Sep-15 10:39 045 4 gusting 6 28.9
2019-Sep-15 10:33 135 4 gusting 6 28.9
2019-Sep-15 10:29 142 3 gusting 6 28.3
2019-Sep-15 10:23 180 4 gusting 8 28.3
2019-Sep-15 10:19 135 5 gusting 6 28.3
2019-Sep-15 10:13 180 3 gusting 4 28.9
2019-Sep-15 10:09 180 3 gusting 3 28.9
2019-Sep-15 10:03 180 1 gusting 2 28.3
2019-Sep-15 09:59 180 1 gusting 2 28.3
2019-Sep-15 09:53 270 1 gusting 1 28.3
2019-Sep-15 09:49 135 2 gusting 4 28.3
2019-Sep-15 09:43 142 2 gusting 4 27.8
2019-Sep-15 09:39 180 3 gusting 4 27.8
2019-Sep-15 09:33 135 3 gusting 5 27.8
2019-Sep-15 09:29 180 3 gusting 4 27.8
2019-Sep-15 09:23 180 1 gusting 3 27.8
2019-Sep-15 09:19 135 2 gusting 3 27.8
2019-Sep-15 09:13 142 1 gusting 2 27.2
2019-Sep-15 09:09 142 3 gusting 3 27.2
2019-Sep-15 09:03 045 2 gusting 3 26.7
2019-Sep-15 08:59 142 1 gusting 3 26.1
2019-Sep-15 08:53 142 1 gusting 1 25.6
2019-Sep-15 08:49 270 1 gusting 1 25.6
2019-Sep-15 08:43 225 2 gusting 3 25.0
2019-Sep-15 08:39 270 1 gusting 2 25.0
2019-Sep-15 08:33 270 1 gusting 3 24.4
2019-Sep-15 08:29 142 2 gusting 3 24.4
2019-Sep-15 08:23 270 3 gusting 4 23.9
2019-Sep-15 08:19 142 2 gusting 3 23.9
2019-Sep-15 08:13 142 1 gusting 2 23.3
2019-Sep-15 08:09 23.3
2019-Sep-15 08:03 270 1 gusting 1 23.3
2019-Sep-15 07:59 142 1 gusting 1 22.8
2019-Sep-15 07:53 270 1 gusting 1 22.8
2019-Sep-15 07:49 142 1 gusting 2 22.2
2019-Sep-15 07:43 270 1 gusting 3 22.2
2019-Sep-15 07:39 22.2
2019-Sep-15 07:33 142 1 gusting 2 22.2
2019-Sep-15 07:29 21.7
2019-Sep-15 07:23 21.7
2019-Sep-15 07:19 142 1 gusting 1 21.7
2019-Sep-15 07:13 21.1
2019-Sep-15 07:09 20.6
2019-Sep-15 07:03 142 0 gusting 1 20.6
2019-Sep-15 06:59 142 20.0
2019-Sep-15 06:53 225 0 gusting 1 19.4
2019-Sep-15 06:49 270 18.9
2019-Sep-15 06:43 142 18.9
2019-Sep-15 06:39 180 0 gusting 1 18.3
2019-Sep-15 06:33 18.3
2019-Sep-15 06:29 270 18.3
2019-Sep-15 06:23 142 17.8
2019-Sep-15 06:19 142 17.8
2019-Sep-15 06:13 180 17.8
2019-Sep-15 06:09 180 0 gusting 1 17.8
2019-Sep-15 06:03 180 0 gusting 1 17.2
2019-Sep-15 05:59 180 0 gusting 1 17.2
2019-Sep-15 05:53 142 17.2
2019-Sep-15 05:49 142 1 gusting 1 17.2
2019-Sep-15 05:43 16.7
2019-Sep-15 05:39 225 1 gusting 2 16.7
2019-Sep-15 05:33 225 1 gusting 1 16.7
2019-Sep-15 05:29 225 0 gusting 1 16.7
2019-Sep-15 05:23 225 1 gusting 1 16.7
2019-Sep-15 05:19 142 16.7
2019-Sep-15 05:13 142 1 gusting 1 16.7
2019-Sep-15 05:09 180 0 gusting 1 16.7
2019-Sep-15 05:03 180 1 gusting 2 16.7
2019-Sep-15 04:59 135 1 gusting 1 16.7
2019-Sep-15 04:53 135 1 gusting 1 16.7
2019-Sep-15 04:49 180 16.7
2019-Sep-15 04:43 142 16.7
2019-Sep-15 04:39 135 0 gusting 1 17.2
2019-Sep-15 04:33 135 0 gusting 1 17.2
2019-Sep-15 04:29 180 1 gusting 1 17.2
2019-Sep-15 04:23 135 0 gusting 1 17.2
2019-Sep-15 04:19 135 17.2
2019-Sep-15 04:13 225 1 gusting 2 17.2
2019-Sep-15 04:09 180 1 gusting 2 17.2
2019-Sep-15 04:03 270 1 gusting 2 17.2
2019-Sep-15 03:59 225 1 gusting 2 17.2
2019-Sep-15 03:53 225 1 gusting 1 17.2
2019-Sep-15 03:49 225 0 gusting 1 17.2
2019-Sep-15 03:43 338 17.2
2019-Sep-15 03:39 142 0 gusting 1 17.2
2019-Sep-15 03:33 180 0 gusting 1 17.2
2019-Sep-15 03:29 142 17.2
2019-Sep-15 03:23 135 0 gusting 1 17.2
2019-Sep-15 03:19 142 17.8
2019-Sep-15 03:13 045 1 gusting 1 17.8
2019-Sep-15 03:09 17.8
2019-Sep-15 03:03 142 17.8
2019-Sep-15 02:59 270 17.8
2019-Sep-15 02:53 135 17.8
2019-Sep-15 02:49 225 1 gusting 1 17.8
2019-Sep-15 02:43 225 1 gusting 1 17.8
2019-Sep-15 02:39 135 1 gusting 1 17.8
2019-Sep-15 02:33 180 1 gusting 1 18.3
2019-Sep-15 02:29 142 18.3
2019-Sep-15 02:23 142 1 gusting 1 18.3
2019-Sep-15 02:19 142 1 gusting 2 18.3
2019-Sep-15 02:13 045 18.3
2019-Sep-15 02:09 180 0 gusting 1 18.3
2019-Sep-15 02:03 180 0 gusting 1 18.3
2019-Sep-15 01:59 180 18.3
2019-Sep-15 01:53 142 0 gusting 1 18.3
2019-Sep-15 01:49 142 18.9
2019-Sep-15 01:43 135 18.9
2019-Sep-15 01:39 135 0 gusting 1 18.9
2019-Sep-15 01:33 18.9
2019-Sep-15 01:29 18.9
2019-Sep-15 01:23 045 1 gusting 1 18.9
2019-Sep-15 01:19 045 0 gusting 1 18.9
2019-Sep-15 01:13 18.3
2019-Sep-15 01:09 225 18.9
2019-Sep-15 01:03 225 18.9
2019-Sep-15 00:59 18.9
2019-Sep-15 00:53 18.9
2019-Sep-15 00:49 142 0 gusting 1 18.9
2019-Sep-15 00:43 142 1 gusting 1 18.9
2019-Sep-15 00:39 225 1 gusting 1 19.4
2019-Sep-15 00:33 142 1 gusting 1 19.4
2019-Sep-15 00:29 045 1 gusting 2 19.4
2019-Sep-15 00:23 142 1 gusting 1 19.4
2019-Sep-15 00:19 045 1 gusting 2 19.4
2019-Sep-15 00:13 142 1 gusting 1 19.4
2019-Sep-15 00:09 142 0 gusting 1 19.4
2019-Sep-15 00:03 142 0 gusting 1 19.4
2019-Sep-14 23:59 142 1 gusting 1 19.4
2019-Sep-14 23:53 20.0
2019-Sep-14 23:49 20.0
2019-Sep-14 23:43 142 20.0
2019-Sep-14 23:39 045 1 gusting 1 20.0
2019-Sep-14 23:33 135 20.6
2019-Sep-14 23:29 180 0 gusting 1 20.6
2019-Sep-14 23:23 180 0 gusting 0 20.6
2019-Sep-14 23:19 180 0 gusting 1 20.6
2019-Sep-14 23:13 142 0 gusting 1 21.1
2019-Sep-14 23:09 21.1
2019-Sep-14 23:03 045 1 gusting 2 21.1
2019-Sep-14 22:59 045 1 gusting 2 21.1
2019-Sep-14 22:53 045 2 gusting 3 21.1
2019-Sep-14 22:49 045 1 gusting 1 21.7
2019-Sep-14 22:43 045 3 gusting 4 21.7
2019-Sep-14 22:39 180 1 gusting 2 22.2
2019-Sep-14 22:33 270 2 gusting 3 21.7
2019-Sep-14 22:29 225 1 gusting 3 21.7
2019-Sep-14 22:23 142 2 gusting 3 22.2
2019-Sep-14 22:19 142 2 gusting 3 21.7
2019-Sep-14 22:13 225 2 gusting 3 22.2
2019-Sep-14 22:09 270 1 gusting 2 22.2
2019-Sep-14 22:03 142 1 gusting 3 22.2